Sanford, NC

4:42 PM EDT on April 26, 2017 (GMT -0400)
Raleigh Executive Jetport

Weather History for KTTA - March, 2013

Change the Weather History Date:

Friday, March 15, 2013

  Actual Average (KHRJ) Record (KHRJ)
Temperature  
Mean Temperature 44 °F -  
Max Temperature 63 °F 65 °F 84 °F (1990)
Min Temperature 24 °F 39 °F 18 °F (1993)
Degree Days  
Heating Degree Days 22    
Moisture  
Dew Point 27 °F    
Average Humidity 58    
Maximum Humidity 89    
Minimum Humidity 25    
Precipitation  
Precipitation 0.00 in - - ()
Sea Level Pressure  
Sea Level Pressure 30.07 in    
Wind  
Wind Speed 2 mph (SW)    
Max Wind Speed 17 mph    
Max Gust Speed 22 mph    
Visibility 10 miles    
Events      
Averages and records for this station are not official NWS values.
T = Trace of Precipitation, MM = Missing Value Source: NWS Daily Summary

Daily Weather History Graph

Daily Weather History Graph

Search for Another Location

Airport or City:

Trip Planner

Search our weather history database for the weather conditions in past years. The results will help you decide how hot, cold, wet, or windy it might be!

Date:

Astronomy

Mar. 15, 2013 Rise Set
Actual Time 7:26 AM EDT 7:24 PM EDT
Civil Twilight 7:01 AM EDT 7:49 PM EDT
Nautical Twilight 6:31 AM EDT 8:19 PM EDT
Astronomical Twilight 6:02 AM EDT 8:49 PM EDT
Moon 9:24 AM EDT (3/15) 11:26 PM EDT (3/15)
Length of Visible Light 12h 48m
Length of Day
11h 57m
Waxing Crescent, 15% of the Moon is Illuminated
Mar 15
Waxing Crescent
Mar 19
First Quarter
Mar 27
Full
Apr 3
Last Quarter
Apr 10
New

Hourly Weather History & Observations

Time (EDT) Temp. Windchill Dew Point Humidity Pressure Visibility Wind Dir Wind Speed Gust Speed Precip Events Conditions
12:15 AM 30.6 °F - 24.3 °F 77% 30.17 in 10.0 mi Calm Calm - N/A   Clear
12:35 AM 29.1 °F - 24.3 °F 82% 30.17 in 10.0 mi Calm Calm - N/A   Clear
12:55 AM 30.0 °F - 23.7 °F 77% 30.17 in 10.0 mi Calm Calm - N/A   Clear
1:15 AM 29.8 °F - 23.9 °F 79% 30.18 in 10.0 mi Calm Calm - N/A   Clear
1:35 AM 29.3 °F - 23.9 °F 80% 30.18 in 10.0 mi Calm Calm - N/A   Clear
1:55 AM 29.1 °F - 24.1 °F 81% 30.18 in 10.0 mi Calm Calm - N/A   Clear
2:15 AM 27.7 °F - 23.4 °F 84% 30.18 in 10.0 mi Calm Calm - N/A   Clear
2:35 AM 29.1 °F - 23.4 °F 79% 30.18 in 10.0 mi Calm Calm - N/A   Clear
3:15 AM 27.9 °F - 23.4 °F 83% 30.18 in 10.0 mi Calm Calm - N/A   Clear
3:35 AM 27.0 °F - 23.9 °F 88% 30.17 in 10.0 mi Calm Calm - N/A   Clear
3:55 AM 27.3 °F - 22.8 °F 83% 30.16 in 10.0 mi Calm Calm - N/A   Clear
4:15 AM 27.3 °F - 23.4 °F 85% 30.15 in 10.0 mi Calm Calm - N/A   Clear
4:35 AM 26.6 °F - 23.0 °F 86% 30.15 in 10.0 mi Calm Calm - N/A   Clear
4:55 AM 26.6 °F - 22.6 °F 85% 30.16 in 10.0 mi Calm Calm - N/A   Clear
5:15 AM 26.4 °F - 23.2 °F 88% 30.16 in 10.0 mi Calm Calm - N/A   Clear
5:35 AM 25.9 °F - 22.3 °F 86% 30.16 in 10.0 mi Calm Calm - N/A   Clear
6:15 AM 25.5 °F - 21.9 °F 86% 30.18 in 10.0 mi Calm Calm - N/A   Clear
6:35 AM 24.8 °F - 21.6 °F 87% 30.17 in 10.0 mi Calm Calm - N/A   Clear
6:55 AM 24.4 °F - 21.2 °F 87% 30.18 in 10.0 mi Calm Calm - N/A   Clear
7:15 AM 24.4 °F - 21.6 °F 89% 30.18 in 10.0 mi Calm Calm - N/A   Clear
7:35 AM 24.6 °F - 21.6 °F 88% 30.18 in 10.0 mi Calm Calm - N/A   Clear
7:55 AM 24.4 °F - 21.7 °F 89% 30.18 in 10.0 mi Calm Calm - N/A   Clear
8:15 AM 24.8 °F - 21.9 °F 89% 30.18 in 10.0 mi Calm Calm - N/A   Clear
8:35 AM 27.7 °F - 24.3 °F 87% 30.18 in 10.0 mi Calm Calm - N/A   Clear
9:15 AM 35.6 °F - 29.5 °F 78% 30.19 in 10.0 mi Calm Calm - N/A   Clear
9:35 AM 39.6 °F 37.4 °F 26.2 °F 59% 30.19 in 10.0 mi SSW 3.5 mph - N/A   Clear
9:55 AM 42.8 °F 41.1 °F 23.2 °F 46% 30.19 in 10.0 mi WSW 3.5 mph - N/A   Clear
10:35 AM 47.3 °F - 21.4 °F 36% 30.18 in 10.0 mi West 3.5 mph - N/A   Clear
10:55 AM 48.6 °F - 19.9 °F 32% 30.16 in 10.0 mi SW 5.8 mph - N/A   Clear
12:15 PM 54.9 °F - 22.5 °F 28% 30.12 in 10.0 mi SSW 10.4 mph - N/A   Clear
12:35 PM 55.6 °F - 21.9 °F 27% 30.11 in 10.0 mi West 10.4 mph 17.3 mph N/A   Clear
12:55 PM 56.8 °F - 23.7 °F 28% 30.10 in 10.0 mi SSW 12.7 mph 16.1 mph N/A   Clear
1:15 PM 58.1 °F - 23.5 °F 26% 30.09 in 10.0 mi WSW 9.2 mph 18.4 mph N/A   Clear
1:35 PM 59.0 °F - 24.6 °F 27% 30.08 in 10.0 mi WSW 6.9 mph 16.1 mph N/A   Clear
1:55 PM 60.1 °F - 24.3 °F 25% 30.07 in 10.0 mi South 8.1 mph 16.1 mph N/A   Clear
2:15 PM 60.8 °F - 26.1 °F 27% 30.05 in 10.0 mi SW 11.5 mph 18.4 mph N/A   Clear
2:35 PM 61.2 °F - 26.4 °F 27% 30.04 in 10.0 mi SW 11.5 mph 20.7 mph N/A   Clear
2:55 PM 61.9 °F - 27.1 °F 27% 30.02 in 10.0 mi WSW 9.2 mph 19.6 mph N/A   Clear
3:15 PM 63.0 °F - 28.8 °F 28% 30.01 in 10.0 mi WSW 10.4 mph 17.3 mph N/A   Clear
3:35 PM 62.6 °F - 28.9 °F 28% 29.99 in 10.0 mi SW 11.5 mph - N/A   Clear
3:55 PM 63.1 °F - 28.8 °F 27% 29.98 in 10.0 mi SW 10.4 mph 19.6 mph N/A   Clear
4:15 PM 62.4 °F - 27.7 °F 27% 29.98 in 10.0 mi SSW 17.3 mph 21.9 mph N/A   Clear
4:35 PM 61.9 °F - 28.8 °F 29% 29.98 in 10.0 mi SW 10.4 mph - N/A   Clear
4:55 PM 61.9 °F - 29.3 °F 29% 29.96 in 10.0 mi SW 8.1 mph - N/A   Clear
5:15 PM 61.7 °F - 30.7 °F 31% 29.96 in 10.0 mi SW 12.7 mph - N/A   Clear
5:35 PM 61.7 °F - 30.6 °F 31% 29.95 in 10.0 mi SW 11.5 mph - N/A   Clear
5:55 PM 61.9 °F - 31.3 °F 32% 29.94 in 10.0 mi SW 9.2 mph 17.3 mph N/A   Clear
6:15 PM 61.9 °F - 31.8 °F 32% 29.94 in 10.0 mi SSW 9.2 mph - N/A   Clear
6:55 PM 61.9 °F - 31.1 °F 31% 29.93 in 10.0 mi SSW 8.1 mph - N/A   Clear
7:15 PM 60.1 °F - 31.5 °F 34% 29.93 in 10.0 mi SSW 5.8 mph - N/A   Clear
7:35 PM 57.2 °F - 31.5 °F 38% 29.93 in 10.0 mi South 4.6 mph - N/A   Clear
7:55 PM 55.4 °F - 32.0 °F 41% 29.93 in 10.0 mi South 3.5 mph - N/A   Clear
8:15 PM 54.7 °F - 32.5 °F 43% 29.93 in 10.0 mi Calm Calm - N/A   Clear
8:55 PM 49.8 °F - 34.0 °F 55% 29.93 in 10.0 mi Calm Calm - N/A   Clear
9:15 PM 46.8 °F - 34.7 °F 63% 29.93 in 10.0 mi Calm Calm - N/A   Clear
9:35 PM 45.7 °F - 34.7 °F 65% 29.93 in 10.0 mi Calm Calm - N/A   Clear
9:55 PM 45.7 °F - 35.1 °F 66% 29.93 in 10.0 mi Calm Calm - N/A   Clear
10:15 PM 45.7 °F - 34.5 °F 65% 29.93 in 10.0 mi Calm Calm - N/A   Clear
10:35 PM 43.9 °F - 34.0 °F 68% 29.93 in 10.0 mi Calm Calm - N/A   Clear
10:55 PM 43.2 °F - 34.0 °F 70% 29.93 in 10.0 mi Calm Calm - N/A   Clear
11:15 PM 43.7 °F - 34.2 °F 69% 29.92 in 10.0 mi Calm Calm - N/A   Clear
11:35 PM 43.0 °F - 34.2 °F 71% 29.91 in 10.0 mi Calm Calm - N/A   Clear
11:55 PM 41.9 °F - 34.5 °F 75% 29.91 in 10.0 mi Calm Calm - N/A   Clear